Location: Düngen
(52.0952°N, 10.0219°E)
Time: 19:26:52
(UTC+00:00)

Cosmos 2369 Rocket - Pass Details

Date: 11 March 2026
Orbit: 829 x 850 km, 71.0° (Epoch: 20 April)

Event Time Altitude Azimuth Distance (km) Brightness Sun altitude
Rises 18:48:30 0° 179° (S) 3,401 5.2 -14.7°
Reaches altitude 10° 18:51:07 10° 170° (S) 2,468 4.4 -15.1°
Maximum altitude 18:56:11 35° 107° (ESE) 1,350 2.7 -15.9°
Drops below altitude 10° 19:01:15 10° 44° (NE) 2,474 4.4 -16.6°
Sets 19:03:53 0° 36° (NE) 3,410 5.2 -17.0°
